N704FK KSYR-

Flight info

Callsign N704FK
Flight time N/A
Altitude VFR/035
Route
Aircraft C150/L-DOV/C

Departure

Time 2026-04-26 19:09
Airport Syracuse Hancock International Airport (KSYR)

Arrival

Time N/A
Airport -
Time Latitude Longitude Altitude Speed Heading
2026-04-26 19:04 43.10592 -76.12492 431 ft 0 kts 178°
2026-04-26 19:05 43.10613 -76.12528 420 ft 0 kts 339°
2026-04-26 19:05 43.10656 -76.12545 415 ft 14 kts 355°
2026-04-26 19:06 43.10713 -76.12547 423 ft 0 kts 359°
2026-04-26 19:08 43.10728 -76.12548 417 ft 10 kts 358°
2026-04-26 19:08 43.10820 -76.12523 418 ft 15 kts 58°
2026-04-26 19:08 43.10832 -76.12330 421 ft 40 kts 87°
2026-04-26 19:08 43.10842 -76.11762 498 ft 68 kts 83°
2026-04-26 19:09 43.10865 -76.11042 639 ft 77 kts 84°
2026-04-26 19:09 43.10869 -76.10315 872 ft 76 kts 88°
2026-04-26 19:09 43.10889 -76.09592 1111 ft 79 kts 87°
2026-04-26 19:09 43.10905 -76.08878 1460 ft 73 kts 82°
2026-04-26 19:10 43.10938 -76.08144 1642 ft 78 kts 84°
2026-04-26 19:10 43.10956 -76.07363 1664 ft 88 kts 80°
2026-04-26 19:10 43.11097 -76.06569 1764 ft 81 kts 40°
2026-04-26 19:10 43.11551 -76.06443 1662 ft 66 kts 359°
2026-04-26 19:11 43.12004 -76.06416 1498 ft 65 kts
2026-04-26 19:11 43.12472 -76.06617 1559 ft 76 kts 315°
2026-04-26 19:11 43.12604 -76.07362 1436 ft 88 kts 271°
2026-04-26 19:11 43.12527 -76.08203 1454 ft 96 kts 267°
2026-04-26 19:12 43.12442 -76.09159 1405 ft 102 kts 267°
2026-04-26 19:12 43.12366 -76.10135 1380 ft 106 kts 268°
2026-04-26 19:12 43.12275 -76.11145 1411 ft 109 kts 268°
2026-04-26 19:12 43.12209 -76.12171 1435 ft 112 kts 269°
2026-04-26 19:13 43.11969 -76.13118 1416 ft 103 kts 211°
2026-04-26 19:13 43.11349 -76.13086 1036 ft 91 kts 186°
2026-04-26 19:13 43.10826 -76.12773 511 ft 85 kts 101°
2026-04-26 19:13 43.10837 -76.12146 415 ft 41 kts 87°
2026-04-26 19:14 43.10844 -76.11909 414 ft 22 kts 90°
2026-04-26 19:14 43.10794 -76.11808 411 ft 12 kts 174°